CAPE
28 28 17 31 30 20 13 21 22 37 33 31 25 18 10 3 1 0 2 7 2 3 6 7 5 0 0 0 0 0 0 0 0 0 0 3 22 20 6 1 1 0 0 0 0 0 0
24 25 37 29 30 22 20 28 36 33 33 39 39 27 20 4 1 0 0 1 10 12 7 4 11 1 0 0 0 0 0 0 0 0 0 15 19 10 10 0 1 0 0 0 0 0 10
25 36 27 26 32 23 22 18 12 14 18 28 27 46 22 14 3 0 0 0 37 3 1 4 3 3 0 0 0 0 0 0 0 0 0 18 10 0 14 0 0 0 0 0 0 1 7
19 54 40 30 19 27 32 33 34 33 28 24 30 39 63 30 5 0 5 13 13 2 5 6 0 4 0 0 0 0 0 0 0 0 6 1 2 1 2 0 0 0 0 0 0 8 11
26 32 20 36 23 27 26 19 33 30 30 43 50 51 59 41 9 0 32 42 10 13 12 3 0 0 0 0 0 0 0 0 1 1 0 0 0 0 14 20 1 0 0 0 0 0 0
19 21 29 23 17 23 20 28 30 38 50 60 57 59 47 14 3 0 27 25 29 13 1 10 1 1 0 0 0 0 0 0 0 2 0 0 0 0 3 1 0 0 0 2 0 0 0
13 17 16 24 17 20 22 31 46 37 26 42 72 98 44 14 15 5 7 0 0 0 9 0 0 0 0 0 0 0 0 0 0 0 0 0 2 0 0 0 0 3 0 0 0 0 0
13 22 29 19 6 18 31 51 18 22 61 73 57 119 36 17 47 0 17 1 0 0 0 0 0 0 0 0 0 0 0 0 0 0 0 8 0 0 4 11 9 6 0 0 4 0 0
19 21 20 16 3 41 53 50 45 96 108 115 141 182 22 4 24 3 33 6 3 0 0 0 0 0 0 0 0 0 0 0 0 0 0 3 0 10 2 0 0 0 1 2 0 1 0
22 16 23 7 19 43 64 48 80 106 117 42 61 84 8 7 1 2 13 14 3 0 0 0 0 0 0 0 0 0 0 0 0 0 0 0 2 1 0 0 16 0 2 0 0 0 0
23 23 28 9 29 50 45 53 63 50 18 17 20 7 11 10 0 5 7 12 0 0 0 0 0 0 0 0 0 0 0 0 0 0 0 0 0 0 0 0 0 0 0 0 0 0 0
35 11 19 6 22 33 51 0 37 57 17 11 24 10 8 14 4 16 0 3 0 0 0 0 0 0 0 0 0 0 0 0 0 0 0 0 0 0 0 0 2 0 0 0 0 1 0
51 1 14 5 21 11 34 0 19 30 14 4 4 15 1 0 17 0 1 0 0 0 0 0 0 0 0 0 0 0 0 0 0 0 0 0 0 0 0 0 2 0 0 0 0 0 0
22 6 10 0 13 13 0 4 7 9 0 13 8 5 24 6 0 0 0 0 0 0 0 0 0 0 0 0 0 0 0 0 0 0 0 0 0 0 0 0 0 0 0 0 0 0 2
1 4 1 0 5 2 2 6 8 6 0 1 2 2 4 2 0 0 0 0 3 0 0 0 0 0 0 0 0 0 0 0 0 0 0 0 0 0 1 4 1 0 0 0 0 0 0
3 4 0 0 4 0 3 5 7 1 0 0 0 0 0 0 0 0 0 5 1 0 0 0 0 0 0 0 0 0 0 0 0 0 0 0 0 0 0 0 0 0 0 0 0 0 0
9 1 0 0 1 1 1 4 2 0 0 0 0 0 0 0 0 0 1 1 1 0 0 0 0 0 0 0 0 0 0 0 0 0 0 0 0 0 0 2 0 0 0 0 0 0 0
15 0 0 0 0 0 0 0 0 0 0 0 0 0 0 0 0 0 0 0 0 0 0 0 0 0 0 0 0 0 0 0 0 0 0 0 0 0 1 0 0 0 0 0 0 0 0
15 0 0 0 0 0 0 0 0 0 0 1 1 0 0 0 0 0 0 0 0 0 0 0 0 0 0 0 0 0 0 0 0 0 0 0 0 0 0 0 0 0 0 0 0 0 0
11 0 0 0 0 0 0 0 0 0 0 0 0 0 0 0 0 0 0 0 0 0 0 0 0 0 0 0 0 0 0 0 0 0 0 0 0 0 0 0 0 0 0 0 0 0 0
8 0 0 0 0 0 0 0 0 0 0 0 0 0 0 0 0 0 0 0 0 0 0 0 0 0 0 0 0 0 0 0 0 0 0 0 0 0 0 0 0 0 0 0 0 0 0
13 1 0 0 0 0 0 0 0 0 0 0 0 0 0 0 0 0 0 0 0 0 0 0 0 0 0 0 0 0 0 0 0 0 0 0 0 0 0 0 0 0 0 0 0 0 0
10 0 0 0 0 0 0 0 0 0 0 0 0 0 0 0 0 0 0 0 0 0 0 0 0 0 0 0 0 0 0 0 0 0 0 0 0 0 0 0 0 0 0 0 0 0 0
1 2 0 0 0 0 0 0 0 0 0 0 0 0 0 0 0 0 0 0 0 0 0 0 0 0 0 0 0 0 0 0 0 0 0 0 0 0 0 0 0 0 0 0 0 0 0
0 6 0 0 0 0 0 0 0 0 0 0 0 0 0 0 0 0 0 0 0 0 0 0 0 0 0 0 0 0 0 0 0 0 0 0 0 0 0 0 0 0 0 0 0 0 0
0 2 1 0 0 0 0 0 0 0 0 0 0 0 0 0 0 0 0 0 0 0 0 0 0 0 0 0 0 0 0 0 0 0 0 0 0 0 0 0 0 0 0 0 0 0 0
0 0 2 0 0 0 0 0 0 0 0 0 0 0 0 0 0 0 0 0 0 0 0 0 0 0 0 0 0 0 0 0 0 0 0 0 0 0 0 0 0 0 0 0 0 0 0
1 0 2 0 0 0 0 0 0 0 0 0 0 0 0 0 0 0 0 0 0 0 0 0 0 0 0 0 0 0 0 0 0 0 0 0 0 0 0 0 0 0 0 0 0 0 0
2 0 0 0 0 0 0 0 0 0 0 0 0 0 0 0 0 0 0 0 0 0 0 0 0 0 0 0 0 0 0 0 0 0 0 0 0 0 0 0 0 0 0 0 0 0 0
CIN
-1 0 -1 0 0 -1 -1 0 0 0 0 0 0 0 0 0 0 0 0 0 -19 -11 0 -30 -1 0 0 0 0 0 0 0 0 0 0 -6 -2 -2 -2 -1 -1 0 0 0 0 -2 0
-1 -1 -1 -1 -1 -1 -1 -1 0 0 0 0 0 0 0 0 0 0 0 0 -4 -4 -1 0 0 0 0 0 0 0 0 0 0 0 0 -10 -9 -16 -4 -5 -1 0 0 0 0 0 -6
-1 -1 -1 -1 -1 0 0 -1 -1 0 0 0 0 0 0 0 0 0 0 0 0 -2 -2 0 -2 -2 0 0 0 0 0 0 0 0 0 -24 -33 -23 -9 0 0 0 0 -1 0 -21 -8
-1 0 -1 -1 -1 0 0 -1 -1 -1 0 0 0 0 -1 -2 -7 0 0 -9 -8 -60 -1 -68 0 -1 0 0 0 0 0 0 0 -6 -30 -32 -29 -16 -4 -4 0 0 0 0 0 -25 -13
0 -1 0 -1 0 -1 0 -1 0 -1 -1 0 0 0 -1 -1 -6 0 -3 -1 -18 -9 -30 -1 0 0 0 0 0 0 0 0 -5 -15 0 0 0 0 -3 0 -4 0 0 0 0 0 0
0 0 0 -1 -1 -1 0 -1 -1 0 -1 0 0 0 -5 -18 -9 0 -5 -4 -3 -23 -11 -28 -4 -1 0 0 0 0 0 0 0 -5 0 0 0 0 -22 -1 0 0 -1 -1 0 0 0
-1 0 -1 -1 0 -1 -1 -1 0 -2 -11 -2 0 0 -5 -10 -21 -27 -31 -1 0 0 -32 0 0 0 0 0 0 0 0 0 0 0 0 0 -1 0 -1 0 0 -25 -3 0 0 0 0
-1 0 0 -1 -1 -3 -1 0 -8 -7 -1 0 0 -2 -7 -10 -13 0 -29 -6 0 0 0 0 0 0 0 0 0 0 0 0 -2 0 0 -4 0 0 -9 -6 -7 -5 -1 0 0 0 0
-2 0 -1 -1 -1 -1 -1 0 -1 -1 0 0 -1 0 -9 -5 -5 -12 -4 -6 -39 0 0 0 0 0 0 0 0 0 0 0 0 0 0 -6 0 -6 -5 0 0 0 -3 -2 0 -2 0
0 -5 -1 -1 -1 -1 0 0 -1 0 0 -58 -40 -9 -13 -8 -2 -6 -6 -12 -4 0 0 0 0 0 0 0 0 0 0 0 0 0 0 0 -11 -2 -2 -2 -8 -1 -7 0 0 0 0
-7 0 0 -1 0 0 -2 -3 -1 -3 -1 -2 -1 -5 -9 -5 0 -8 -20 -19 0 0 0 -1 0 0 0 0 0 0 0 0 0 0 0 0 0 0 0 0 0 0 0 0 0 0 0
0 -1 0 0 -1 0 -1 0 0 0 -1 -3 -2 -3 -9 -7 -13 -5 0 -28 0 0 0 0 0 0 0 0 0 0 0 0 0 0 0 0 0 0 0 0 -8 -1 0 0 0 -12 0
0 0 0 0 0 0 0 0 -1 0 -6 -11 -10 -2 -3 -5 -3 0 -9 0 0 0 0 -1 0 0 0 0 0 0 0 0 0 0 0 0 0 0 0 0 -12 0 -7 0 0 0 -1
0 0 0 0 0 0 0 0 0 0 0 -12 -10 -14 -1 -9 -14 0 0 0 0 0 -1 0 0 0 0 0 0 0 0 0 0 0 0 0 0 0 0 0 0 0 0 0 -3 0 -7
-2 0 0 0 0 0 0 0 0 0 0 -22 -13 -11 -1 -9 0 0 0 0 -2 0 0 0 0 0 0 0 0 0 0 0 0 0 0 0 0 0 -6 -6 -28 0 0 0 0 0 0
-1 0 0 0 0 0 0 0 0 0 0 0 0 0 0 0 0 0 0 0 -1 0 0 0 0 0 0 0 0 0 0 0 0 0 0 0 0 -4 0 0 0 0 0 0 0 0 0
-1 0 0 0 0 0 0 0 0 0 0 0 -2 0 0 0 0 0 -1 -1 -1 0 0 0 0 0 0 0 0 0 0 0 0 0 0 0 0 0 0 -1 0 0 0 0 0 0 0
-1 0 0 0 0 0 0 0 0 0 0 0 0 0 0 0 0 0 0 0 0 0 0 0 0 0 0 0 0 0 0 0 0 0 0 0 0 0 -3 0 0 0 0 0 0 0 0
0 0 0 0 0 0 0 0 0 0 0 0 0 0 0 0 0 0 0 0 0 0 0 0 0 0 0 0 0 0 0 0 0 0 0 0 0 0 0 0 0 0 0 0 0 0 0
0 0 0 0 0 0 0 0 0 0 0 0 0 0 0 0 0 0 0 0 0 0 0 0 0 0 0 0 0 0 0 0 0 0 0 0 0 0 0 0 0 0 0 0 0 0 0
0 0 0 0 0 0 0 0 0 0 0 0 0 0 0 0 0 0 0 0 0 0 0 0 0 0 0 0 0 0 0 0 0 0 0 0 0 0 0 0 0 0 0 0 0 0 0
0 -6 0 0 0 0 0 0 0 0 0 0 0 0 0 0 0 0 0 0 0 0 0 0 0 0 0 0 0 0 0 0 0 0 0 0 0 0 0 0 0 0 0 0 0 0 0
0 -3 0 0 0 0 0 0 0 0 0 0 0 0 0 0 0 0 0 0 0 0 0 0 0 0 0 0 0 0 0 0 0 0 0 0 0 0 0 0 0 0 0 0 0 0 0
0 -1 0 0 0 0 0 0 0 0 0 0 0 0 0 0 0 0 0 0 0 0 0 0 0 0 0 0 0 0 0 0 0 0 0 0 0 0 0 0 0 0 0 0 0 0 0
0 0 0 0 0 0 0 0 0 0 0 0 0 0 0 0 0 0 0 0 0 0 0 0 0 0 0 0 0 0 0 0 0 0 0 0 0 0 0 0 0 0 0 0 0 0 0
0 0 0 0 0 0 0 0 0 0 0 0 0 0 0 0 0 0 0 0 0 0 0 0 0 0 0 0 0 0 0 0 0 0 0 0 0 0 0 0 0 0 0 0 0 0 0
0 0 0 0 0 0 0 0 0 0 0 0 0 0 0 0 0 0 0 0 0 0 0 0 0 0 0 0 0 0 0 0 0 0 0 0 0 0 0 0 0 0 0 0 0 0 0
-1 0 0 0 0 0 0 0 0 0 0 0 0 0 0 0 0 0 0 0 0 0 0 0 0 0 0 0 0 0 0 0 0 0 0 0 0 0 0 0 0 0 0 0 0 0 0
-1 0 0 0 0 0 0 0 0 0 0 0 0 0 0 0 0 0 0 0 0 0 0 0 0 0 0 0 0 0 0 0 0 0 0 0 0 0 0 0 0 0 0 0 0 0 0
Wind_Speed
37 39 39 40 41 41 39 39 38 37 36 36 36 36 36 36 35 32 29 20 18 17 19 18 20 22 22 21 22 11 11 12 11 11 10 12 9 9 18 20 20 25 25 16 10 16 16
39 40 41 43 42 42 43 44 42 39 38 39 37 36 34 35 35 34 30 28 19 19 19 18 19 19 20 26 14 10 11 11 11 9 13 14 11 9 9 5 3 9 17 15 14 17 3
39 39 39 42 42 43 43 42 40 40 39 39 39 35 32 32 34 33 31 27 23 18 19 19 18 19 23 26 15 16 12 10 9 10 11 11 11 9 11 12 17 15 15 14 13 18 21
40 40 41 42 44 44 43 41 41 41 41 39 38 37 33 31 32 33 32 28 23 17 19 17 17 19 23 17 9 21 8 9 9 10 10 10 11 10 11 14 15 12 11 9 11 18 13
40 42 43 42 46 45 44 43 42 43 41 39 37 36 34 31 31 32 32 28 20 18 18 15 17 18 23 19 15 16 12 11 10 9 10 12 8 10 10 13 14 13 9 9 17 11 5
41 42 43 45 47 46 45 45 44 42 41 40 37 35 33 30 29 29 27 20 17 20 15 12 20 20 22 17 16 15 13 13 15 12 10 11 11 11 11 9 8 17 14 15 13 16 8
42 43 44 47 47 46 46 45 45 45 44 40 37 34 31 28 27 26 23 18 17 18 20 21 19 18 13 17 18 16 16 16 15 14 12 11 8 7 5 6 14 20 27 24 24 22 9
42 43 45 49 47 46 46 46 47 46 42 37 35 32 30 26 25 24 21 17 16 17 22 27 27 26 22 18 16 18 17 16 16 13 10 9 7 7 4 2 21 29 28 27 24 15 4
40 42 45 49 47 47 47 45 47 47 45 33 24 29 26 23 22 18 17 18 21 18 21 18 20 23 22 19 17 20 16 14 14 11 9 7 5 7 8 1 29 29 29 29 30 27 6
38 42 46 49 48 48 45 43 45 49 46 37 16 6 16 17 16 16 16 15 16 16 22 21 20 18 19 19 18 17 15 15 13 12 9 10 13 14 11 8 23 18 25 30 30 26 23
35 40 45 49 48 48 42 41 40 42 36 37 15 7 9 14 15 15 15 15 18 16 28 19 18 16 17 19 17 17 15 14 12 9 12 11 11 16 16 12 14 10 31 32 30 27 23
33 38 44 49 48 46 39 34 17 19 21 18 9 7 7 12 16 14 15 17 18 21 24 19 17 19 21 19 17 16 15 14 13 13 14 11 13 18 18 15 12 6 28 28 24 22 18
34 37 43 48 47 44 35 19 15 17 18 16 10 4 10 12 17 13 14 18 20 22 19 19 20 21 21 20 18 16 15 15 16 15 16 17 22 20 23 22 16 26 20 14 13 18 15
33 35 41 47 44 41 28 13 13 13 10 9 1 6 8 15 15 14 14 15 21 16 17 17 20 20 19 18 16 15 14 17 14 16 15 24 25 27 24 25 17 13 18 13 11 13 17
32 33 40 44 41 37 18 12 11 9 6 3 10 10 11 8 11 11 12 18 19 17 16 20 19 18 17 16 15 15 17 13 16 19 21 23 25 22 24 24 23 16 18 12 10 8 10
30 31 38 42 39 32 15 11 9 6 3 2 16 13 8 6 7 11 15 18 15 11 12 16 18 15 18 15 14 15 14 10 11 12 14 17 25 23 24 24 21 22 12 22 8 8 6
27 29 34 40 35 28 12 10 8 6 6 3 15 15 11 6 10 12 15 14 11 9 10 12 10 12 10 13 10 13 11 15 11 9 16 19 24 25 28 34 32 25 24 21 22 10 10
25 26 31 36 31 25 14 8 7 6 8 9 17 19 14 8 13 13 11 10 9 7 6 10 9 8 8 8 8 13 14 12 5 10 16 16 23 31 32 28 25 28 25 22 24 22 19
22 22 27 33 28 20 14 12 5 5 6 12 20 17 14 15 13 10 9 10 8 6 6 8 8 8 7 9 14 12 13 11 8 15 17 16 23 31 29 25 25 26 22 22 22 20 19
20 19 23 27 26 17 12 7 5 4 5 11 17 16 13 13 13 11 12 7 10 5 5 6 8 10 11 8 7 13 13 11 11 16 15 19 24 28 33 28 23 24 21 21 22 23 20
16 16 19 21 23 15 6 6 3 4 4 13 9 13 14 12 11 10 11 10 5 9 8 6 7 6 10 12 12 11 13 14 12 14 18 20 24 23 22 22 22 22 22 21 22 21 20
12 12 16 16 19 11 6 6 4 3 8 16 13 11 12 14 12 11 12 9 7 9 9 9 8 8 9 10 11 12 11 14 17 16 19 17 21 20 23 23 24 24 22 21 20 19 18
9 9 12 12 14 9 9 9 7 7 17 16 13 12 11 14 13 13 13 11 9 11 10 10 12 12 11 10 11 11 6 13 17 17 17 19 20 20 22 18 19 24 21 21 19 18 18
5 7 8 9 10 12 12 13 13 10 8 19 19 14 11 13 14 12 12 13 11 11 12 12 13 12 13 13 12 12 19 19 21 21 18 18 18 18 19 18 27 18 18 17 17 16 16
2 5 7 9 11 14 13 14 15 17 17 14 13 11 11 14 15 14 14 14 12 12 13 15 15 13 14 14 15 16 16 15 17 18 18 17 17 19 21 20 17 16 17 17 18 17 15
4 5 6 9 11 9 10 14 12 13 13 13 14 15 14 13 15 18 16 14 15 15 15 15 15 15 16 15 16 16 16 15 15 15 16 16 16 17 19 20 21 16 17 18 17 18 17
4 5 6 7 6 8 8 10 7 8 9 9 11 13 13 14 14 15 15 17 16 15 15 15 14 15 16 16 16 15 15 15 15 15 14 15 15 15 16 16 13 14 18 19 19 18 17
7 5 6 7 5 5 6 8 9 7 8 6 8 5 8 15 17 14 16 19 20 16 14 14 15 16 15 16 16 16 16 15 14 13 13 13 14 13 14 15 16 16 18 15 16 16 15
8 7 5 6 4 3 4 4 4 8 8 10 11 8 2 12 15 13 16 17 18 18 17 16 17 16 15 15 16 16 17 16 16 16 13 12 10 12 10 11 11 12 10 12 13 13 12
Wind_Direction
358 354 351 349 347 346 345 343 343 340 337 335 333 332 330 328 327 324 322 327 327 331 333 334 324 323 321 311 309 355 14 15 29 22 39 15 24 15 339 332 322 310 313 312 285 316 299
358 355 353 350 349 348 345 343 342 341 337 330 326 327 328 327 325 321 315 317 325 327 331 331 321 320 316 288 340 26 26 37 30 65 16 13 38 59 30 21 231 211 222 219 221 217 232
358 357 355 353 351 348 346 345 343 340 337 333 329 324 328 328 324 319 310 311 316 325 327 324 317 312 293 272 332 339 14 28 73 49 38 60 94 90 185 214 213 220 227 222 215 202 213
359 356 355 354 350 348 347 346 343 341 337 334 331 329 323 325 323 317 306 299 303 324 319 320 309 301 278 320 22 248 74 131 74 41 93 107 112 124 139 210 223 201 194 185 119 193 182
1 358 355 354 350 349 348 346 344 341 339 336 332 328 324 320 320 313 297 283 295 306 308 312 296 290 264 316 317 186 147 94 55 58 101 47 155 84 129 212 224 196 179 213 251 191 97
3 1 358 354 352 350 350 348 346 344 340 336 332 327 323 319 315 312 305 294 295 282 301 312 273 267 259 266 293 289 101 136 168 119 69 57 37 66 72 109 115 237 234 239 232 249 162
6 3 359 356 354 353 352 351 349 346 341 337 333 328 324 317 306 306 307 289 270 267 261 253 249 242 264 269 250 188 158 158 169 162 146 132 116 148 146 146 209 233 270 264 273 276 82
6 4 1 358 357 356 355 355 353 348 344 342 336 329 316 319 294 293 287 266 256 269 239 231 233 233 247 257 211 191 169 158 141 145 141 135 174 194 132 77 255 274 273 280 309 17 123
6 5 2 1 359 358 0 0 357 357 354 356 354 329 295 299 282 278 266 248 260 259 226 236 234 227 228 220 203 174 176 162 150 142 138 113 113 74 47 74 281 292 288 286 287 293 33
5 5 4 2 2 3 5 5 6 0 353 7 44 217 269 256 251 243 234 248 237 233 202 207 215 221 220 211 191 200 188 154 137 117 103 94 70 51 38 30 349 332 301 295 289 289 294
4 5 5 3 3 6 8 11 13 358 339 347 315 270 210 201 206 208 221 223 209 213 180 204 205 225 208 193 187 172 183 152 128 122 90 78 50 34 26 26 4 348 293 283 279 269 277
3 6 6 5 5 9 14 19 6 335 333 331 329 305 206 184 181 197 205 203 195 187 176 193 203 197 187 185 176 169 156 146 130 99 83 65 58 49 36 26 29 342 286 277 276 267 266
6 8 8 7 8 12 20 22 341 339 332 326 316 242 182 180 169 193 187 181 175 173 191 186 186 183 181 176 170 166 146 127 99 87 67 61 59 49 40 32 49 354 324 312 288 254 254
10 11 10 10 12 17 28 345 343 340 343 343 12 138 132 159 172 174 176 183 161 170 172 184 180 180 178 175 173 163 149 119 96 84 73 56 51 44 43 45 57 96 84 321 321 262 243
12 15 13 12 16 23 31 358 355 349 0 35 127 120 137 160 158 179 179 150 162 172 178 173 178 177 179 178 176 164 132 126 96 75 69 60 58 60 53 61 65 100 118 245 285 269 241
15 18 15 16 20 29 35 5 2 4 17 116 128 136 124 169 170 163 150 141 156 173 184 186 178 185 176 182 179 160 141 128 107 86 79 74 61 61 59 63 78 96 166 120 230 288 286
18 21 20 19 26 40 42 4 16 43 1 170 139 138 158 174 164 150 137 150 162 178 188 183 183 184 189 192 193 164 149 119 101 102 87 75 73 65 68 64 69 87 102 119 118 311 308
21 24 24 24 34 51 58 40 68 49 6 129 137 137 163 174 148 158 144 162 179 181 194 188 197 198 203 222 203 164 140 127 131 110 91 83 81 71 69 76 85 90 95 108 115 118 65
25 29 30 30 44 63 71 79 90 96 103 133 135 143 152 160 155 153 168 167 170 179 193 195 203 203 216 216 179 164 146 142 137 105 94 88 82 71 73 78 79 89 93 100 117 115 113
29 34 37 38 48 69 85 90 124 130 125 142 150 151 153 161 176 178 176 174 184 208 201 212 216 208 204 213 218 167 151 150 136 111 107 98 87 80 73 77 83 88 95 98 103 99 105
34 42 43 45 50 75 116 135 185 172 157 151 166 168 176 184 190 194 189 197 210 207 223 262 229 271 228 200 187 176 158 140 141 116 99 98 87 88 89 86 88 91 93 97 97 103 99
38 50 52 57 57 99 156 169 185 208 173 144 170 188 184 191 210 210 209 216 226 221 235 232 240 272 300 230 204 180 194 142 111 104 98 103 93 94 87 89 89 88 91 95 96 100 99
45 65 67 74 75 142 180 185 188 183 128 143 164 187 221 203 220 216 220 234 262 238 247 262 242 243 291 265 251 220 288 83 88 98 103 100 95 94 86 93 93 84 93 93 93 97 97
55 84 89 106 121 189 176 161 150 177 209 118 122 170 233 219 233 246 246 246 258 284 272 271 289 284 241 231 237 309 61 67 56 58 90 95 96 97 90 92 73 93 98 98 96 94 99
141 110 116 122 171 183 148 124 124 99 73 47 195 244 280 245 257 266 263 271 287 310 317 310 317 308 264 276 332 34 66 79 79 68 68 88 99 86 77 83 93 97 100 98 89 88 105
182 142 125 137 156 86 49 147 102 91 56 41 51 50 331 302 286 264 275 282 284 299 307 320 323 310 313 329 342 15 41 55 60 70 65 81 93 83 74 74 74 95 100 96 91 82 100
204 170 147 136 99 97 26 346 19 30 35 36 0 359 358 331 314 304 285 282 287 301 310 320 327 320 321 327 338 356 19 32 34 40 59 61 70 72 69 74 94 103 98 92 77 77 95
212 203 171 150 118 80 98 351 324 334 340 2 355 44 7 326 313 314 299 288 286 298 308 316 317 316 322 325 332 343 346 0 17 24 33 58 62 70 64 63 65 96 87 89 84 88 93
228 215 205 172 143 105 28 53 356 312 317 327 321 334 333 324 323 320 307 305 296 292 295 296 302 310 322 324 327 333 333 343 351 354 16 36 66 47 82 67 75 111 98 93 89 85 86